Regional Weather Roundup
Issued by NWS

Home | Current Version | Previous Version | Graphics & Text | Print | Product List | Glossary On
Versions: 1 2 3 4 5 6 7 8 9 10 11 12 13 14 15 16 17 18 19 20 21 22 23 24 25 26 27 28 29 30 31 32 33 34 35 36 37 38 39 40 41 42 43 44 45 46 47 48 49 50
000
ASUS44 KMEG 201410
RWRTN
TENNESSEE HOURLY STATE WEATHER ROUNDUP
NATIONAL WEATHER SERVICE MEMPHIS TN
900 AM CDT SAT SEP 20 2014

TNZ002-004-019-021-049-052-054-088>092-201500-
WEST TENNESSEE

CITY           SKY/WX    TMP DP  RH WIND       PRES   REMARKS
MEMPHIS INTL   SUNNY     77  66  68 SE7       30.08R
NWS MEMPHIS      N/A     74 N/A N/A MISG        N/A
JACKSON        SUNNY     74  67  78 S6        30.11R
DYERSBURG      MOSUNNY   70  61  73 S3        30.10R
UNION CITY     SUNNY     72  66  83 S6        30.09R
PARIS          SUNNY     72  64  78 S12       30.11S
HUNTINGDON     SUNNY     71  65  81 S10       30.11R
LEXINGTON      SUNNY     72  66  83 VRB6      30.11R
SAVANNAH       SUNNY     73  70  88 SE7       30.12R
$$

TNZ008-025-027-028-033-062-065-066-201500-
NORTH MIDDLE TENNESSEE

CITY           SKY/WX    TMP DP  RH WIND       PRES   REMARKS
NASHVILLE      MOSUNNY   75  63  66 S13       30.14S
DICKSON        SUNNY     72  64  78 S9        30.13R
PORTLAND       SUNNY     72  63  73 S10       30.13R
CLARKSVILLE    MOSUNNY   72  66  81 S3        30.12R
LEBANON        SUNNY     73  63  71 S8        30.13S
SMYRNA         SUNNY     73  64  73 VRB7      30.15S
MURFREESBORO   SUNNY     73  63  71 S6        30.14S
COOKEVILLE     SUNNY     72  63  73 S7        30.17R
GALLATIN       SUNNY     71  67  87 S5        30.16R
CROSSVILLE     SUNNY     72  59  63 VRB5      30.21R
$$

TNZ061-075-076-078-094-096-097-201500-
SOUTH MIDDLE TENNESSEE

CITY           SKY/WX    TMP DP  RH WIND       PRES   REMARKS
LEWISBURG      SUNNY     74  64  70 S9        30.14R
FAYETTEVILLE   SUNNY     72  63  73 SE8       30.16S
TULLAHOMA      SUNNY     70  61  73 S7        30.18R
WINCHESTER     SUNNY     73  63  68 SE14      30.16S
MCMINNVILLE    MOSUNNY   73  64  73 SE3       30.17R
COLUMBIA       SUNNY     73  70  88 S10       30.13R
SHELBYVILLE    SUNNY     73  64  73 S7        30.16S
$$

TNZ017-018-042-046-047-201500-
NORTHEAST TENNESSEE

CITY           SKY/WX    TMP DP  RH WIND       PRES   REMARKS
TRI CITIES     SUNNY     68  57  68 VRB3      30.23S
ELIZABETHTON   SUNNY     70  52  52 SE6       30.23S
$$

TNZ012-013-036-069-073-074-201500-
CENTRAL EAST TENNESSEE

CITY           SKY/WX    TMP DP  RH WIND       PRES   REMARKS
KNOXVILLE      MOSUNNY   70  60  70 NE6       30.18S
OAK RIDGE      SUNNY     68  62  81 CALM      30.20S
GATLINBURG     SUNNY     68  59  73 CALM      30.19R
MORRISTOWN     SUNNY     72  61  68 E6        30.21R
$$

TNZ083-085-099-201500-
SOUTHEAST TENNESSEE

CITY           SKY/WX    TMP DP  RH WIND       PRES   REMARKS
CHATTANOOGA    SUNNY     71  61  70 CALM      30.18S
$$

SKY/WX REPORTED AS FAIR MEANS FEW OR NO CLOUDS BELOW
12 THOUSAND FEET.



USA.gov is the U.S. government's official web portal to all federal, state and local government web resources and services.